Lapse_Rate
6.7 6.8 6.8 7.0 7.1 7.4 7.3 6.7 7.0 7.1 6.7 6.6 6.6 6.4 6.5 5.9 5.0 6.6 8.1 8.3 6.9 5.8 5.8 6.6 6.9 7.2 7.3 7.0 6.6 6.0 6.5 6.5 6.5 6.5 6.5 7.3 6.6 7.7 7.3 7.6 7.8 8.1 8.0 6.0 6.1
7.1 7.0 6.8 6.9 6.9 7.1 7.0 6.6 6.3 6.4 6.7 6.5 6.2 5.9 6.1 5.5 7.4 7.8 7.8 6.8 6.3 6.7 6.3 7.3 8.2 7.7 7.8 7.6 7.5 6.9 6.5 6.5 6.6 6.6 6.5 7.0 7.0 7.2 7.1 7.1 7.3 7.7 5.8 4.9 4.6
6.8 6.6 7.2 7.1 7.3 7.6 6.9 6.7 6.7 6.8 6.1 5.8 5.1 5.5 6.4 6.4 8.3 8.4 7.0 6.5 6.0 6.2 6.3 6.8 8.6 8.2 7.2 7.6 7.3 6.9 6.5 6.6 6.8 7.2 7.3 7.0 7.0 7.5 7.0 6.5 7.3 7.2 7.8 5.4 5.1
6.7 6.8 6.9 6.7 6.0 7.4 6.9 6.6 6.6 6.9 6.0 5.3 5.3 5.8 6.7 7.6 6.5 7.9 6.4 5.6 5.2 5.4 6.1 7.1 8.1 7.3 6.7 6.5 7.4 6.5 6.9 7.0 7.1 7.1 7.2 6.8 7.4 7.0 7.2 7.2 7.2 6.6 6.4 6.5 6.2
6.5 7.1 7.5 6.6 5.3 6.6 6.8 7.0 6.7 6.1 6.0 5.1 5.6 7.0 7.3 7.9 7.9 7.5 4.8 4.5 5.5 5.4 6.1 7.6 7.7 7.4 6.5 6.9 7.0 6.5 6.8 7.2 7.3 7.3 7.2 6.8 6.9 6.9 7.2 7.8 6.4 5.8 5.6 6.6 7.6
6.7 6.8 8.1 7.7 6.8 6.5 6.4 7.0 7.1 6.7 6.7 6.4 5.7 6.5 7.0 6.8 7.8 6.5 5.1 6.4 6.5 6.0 6.8 7.1 7.8 7.2 7.3 6.9 6.6 7.1 7.1 7.1 7.2 7.2 7.2 6.7 6.8 7.0 7.4 6.7 6.8 5.5 6.9 7.0 6.6
5.9 6.3 6.9 7.5 8.0 7.0 7.2 7.3 7.5 7.2 7.1 6.5 6.0 6.7 7.7 7.6 7.4 6.1 6.1 5.9 5.3 6.0 6.8 5.4 5.6 7.6 7.6 6.7 7.5 7.3 6.5 6.5 6.9 7.0 6.7 7.2 6.5 6.5 7.6 7.1 7.6 7.6 7.0 6.5 6.6
4.9 5.5 6.1 6.5 6.1 6.0 6.4 6.8 6.5 6.5 6.6 6.2 5.4 6.3 7.4 7.7 7.2 7.0 7.2 6.5 5.7 5.0 5.2 4.6 5.5 4.9 7.5 7.6 7.1 6.5 6.5 6.5 6.5 6.8 6.8 6.8 6.5 6.6 7.7 7.5 7.4 7.7 7.8 7.1 6.9
4.3 4.7 5.4 6.0 5.9 5.6 5.5 5.9 6.2 6.1 5.9 5.6 6.8 6.9 7.2 7.3 7.3 5.7 6.2 6.0 5.9 5.4 4.9 4.6 4.8 7.1 7.1 6.5 6.5 6.5 6.5 6.5 6.5 6.9 6.5 6.5 6.5 6.7 7.6 7.5 7.4 7.6 7.8 7.8 8.0
3.5 3.9 4.4 4.8 5.2 5.4 5.1 5.3 5.2 5.7 6.5 6.4 6.6 7.3 7.6 7.3 6.1 5.4 5.4 5.6 6.3 6.2 6.3 6.7 7.1 6.5 6.5 6.5 6.5 6.5 6.5 6.5 6.5 6.5 6.5 6.5 6.5 6.5 7.3 7.4 7.4 7.6 7.7 7.8 8.0
3.4 3.7 4.4 4.6 4.7 4.5 5.6 6.5 7.4 7.4 6.9 6.5 6.8 7.4 6.7 6.8 5.8 5.8 4.8 5.9 6.3 7.4 6.5 7.0 6.5 6.5 6.5 6.5 6.5 6.5 6.5 6.5 6.5 6.5 6.5 6.5 6.5 6.5 7.0 7.2 7.1 7.3 7.5 7.7 8.0
2.9 3.2 3.6 4.0 4.1 3.7 5.6 6.1 4.2 5.3 6.9 6.3 6.0 6.4 5.8 5.2 7.3 5.7 5.8 7.2 7.0 6.5 6.7 6.5 6.5 6.5 6.5 6.5 6.5 6.5 6.5 6.5 6.5 6.5 6.5 6.5 6.5 6.5 6.7 6.8 7.2 7.3 7.4 7.7 7.9
2.0 2.3 3.0 3.4 3.8 4.1 4.6 3.7 2.3 3.4 6.9 6.5 5.9 6.3 6.0 6.0 6.6 6.1 5.7 6.1 6.7 6.5 6.5 6.5 6.5 6.7 6.5 6.5 6.5 6.5 6.5 6.5 6.5 6.5 6.5 6.5 6.5 6.5 6.6 7.0 7.3 7.5 7.7 7.9 8.0
1.5 1.5 1.8 2.8 4.7 3.4 3.2 1.4 1.6 2.8 6.5 6.5 6.8 6.7 6.2 5.6 6.8 5.7 5.0 6.3 6.8 6.5 6.5 6.5 6.7 6.5 6.5 6.5 6.5 6.5 6.5 6.5 6.5 6.5 6.5 6.5 6.5 6.5 6.5 6.5 6.7 7.3 7.6 7.8 7.9
1.4 1.5 1.5 3.4 4.1 4.4 2.0 1.1 2.2 4.5 6.5 6.5 6.7 7.0 6.0 7.0 6.8 6.6 5.2 6.3 6.5 6.5 6.5 6.5 6.5 6.5 6.5 6.5 6.5 6.5 6.5 6.5 6.5 6.5 6.5 6.5 6.5 6.5 6.5 6.5 6.5 7.0 7.5 7.8 8.0
1.2 1.3 2.2 3.4 3.1 1.5 0.7 1.5 3.6 6.5 6.5 6.5 6.6 6.5 6.6 6.9 6.8 6.4 6.6 6.0 6.9 6.5 6.5 6.5 7.1 6.6 6.5 6.5 6.5 6.5 6.5 6.5 6.5 6.5 6.5 6.5 6.5 6.5 6.5 6.5 6.5 7.0 7.4 7.7 7.8
1.5 1.3 2.5 2.0 4.2 0.9 1.4 5.6 6.5 6.5 6.5 6.5 6.5 6.5 6.5 6.5 6.5 6.6 6.5 6.5 6.5 6.5 6.5 6.5 6.5 6.6 6.8 6.5 6.5 6.5 6.5 6.5 6.5 6.5 6.5 6.5 6.5 6.5 6.5 6.5 6.6 6.7 7.3 7.7 7.8
1.0 1.9 0.7 1.4 1.1 1.5 4.6 6.6 6.5 6.5 6.5 6.5 6.5 6.5 6.5 6.5 6.5 6.5 6.5 6.5 6.5 6.5 6.5 6.5 6.5 6.5 6.6 6.5 6.5 6.5 6.5 6.5 6.5 6.5 6.5 6.5 6.5 6.5 6.5 6.9 7.2 7.3 7.5 7.7 7.7
0.4 2.4 3.4 2.4 0.7 2.6 7.2 6.5 6.5 6.5 6.5 6.5 6.5 6.5 6.5 6.5 6.5 6.5 6.5 6.5 6.5 6.5 6.5 6.5 6.5 6.5 6.5 6.7 6.5 6.5 6.5 6.5 6.5 6.5 6.5 6.5 6.5 6.5 6.5 6.5 6.9 7.1 7.3 7.4 7.7
3.0 3.8 4.2 0.4 0.3 4.2 6.7 6.5 6.5 6.7 6.7 6.5 6.5 6.5 6.5 6.5 6.5 6.5 6.5 6.5 6.5 6.6 6.9 6.5 6.5 6.5 6.5 6.8 6.7 6.5 6.5 6.5 6.5 6.5 6.5 6.5 6.5 6.5 6.5 6.5 6.5 6.7 7.1 7.5 7.7
2.9 6.4 3.2 0.2 1.9 6.9 6.5 6.5 6.5 7.1 7.0 6.5 6.5 6.5 6.5 6.5 6.5 6.5 6.5 6.5 6.6 6.5 6.8 6.5 6.5 6.5 6.5 6.5 6.5 6.5 6.5 6.5 6.5 6.5 6.5 6.5 6.5 6.5 6.5 6.5 6.5 6.9 7.3 7.5 7.7
2.8 6.6 3.4 1.1 6.6 7.0 6.5 6.5 6.5 6.7 7.2 6.7 6.6 6.5 6.5 6.5 6.5 6.5 6.5 6.5 7.1 6.9 6.5 6.5 6.5 6.5 6.5 6.5 6.5 6.5 6.5 6.5 6.5 6.5 6.5 6.5 6.5 6.5 6.5 6.7 7.0 7.1 7.4 7.7 7.8
4.7 4.8 3.3 3.0 6.5 6.5 6.7 6.5 6.7 6.5 6.6 6.5 6.5 6.5 6.5 6.5 6.5 6.5 6.5 6.9 7.1 6.6 6.5 6.5 6.5 6.5 6.5 6.5 6.5 6.5 6.5 6.5 6.5 6.5 6.5 6.5 6.5 6.5 6.8 6.7 7.1 7.2 7.5 7.7 7.8
4.9 6.5 6.0 5.1 6.2 6.6 6.5 6.5 6.5 6.4 6.7 6.8 6.6 6.7 6.5 6.5 6.5 6.5 6.5 6.6 6.9 6.9 6.1 6.7 6.5 6.5 6.5 6.5 6.5 6.5 6.5 6.5 6.5 6.5 6.5 6.5 6.5 6.5 6.5 6.5 6.9 7.2 7.5 7.7 7.8
3.6 6.4 5.3 6.5 6.7 6.7 6.7 6.5 6.5 6.5 6.8 6.9 6.5 6.5 6.5 6.5 6.5 6.5 6.5 6.5 6.8 6.9 6.8 6.5 6.5 6.5 6.5 6.5 6.5 6.5 6.5 6.5 6.5 6.5 6.5 6.5 6.5 6.5 6.5 6.5 7.1 7.5 7.6 7.6 7.7
6.3 7.0 5.1 7.1 7.0 6.6 6.5 6.5 6.5 6.5 6.5 6.5 6.5 6.5 6.5 6.5 6.5 6.5 6.5 6.5 6.5 6.7 6.5 6.6 6.5 6.5 6.5 6.5 6.5 6.5 6.5 6.5 6.5 6.5 6.5 6.5 6.5 6.5 7.1 7.4 7.2 7.4 7.4 7.4 7.5
1.2 2.5 6.2 6.2 6.7 6.5 6.5 6.5 6.5 6.7 6.8 7.0 6.7 6.5 6.5 6.6 7.1 7.2 7.3 7.1 6.8 6.5 6.5 6.5 6.5 6.5 6.5 6.5 6.5 6.5 6.5 6.5 6.5 6.5 6.5 6.5 6.5 6.8 6.5 6.8 7.1 7.4 7.5 7.5 7.7
Wind_Speed
9 7 6 4 6 9 8 10 7 6 5 2 19 20 17 14 12 8 9 2 3 4 7 5 6 7 5 3 1 2 3 6 7 9 7 7 5 2 1 2 2 1 1 4 10
9 8 7 3 3 4 10 8 5 4 8 4 11 18 17 17 10 8 4 3 2 3 4 9 11 11 5 4 1 4 3 4 2 2 6 8 3 5 3 3 5 4 3 3 10
16 13 10 11 3 5 10 13 10 10 16 19 17 8 16 17 8 5 5 3 2 2 5 5 8 5 5 4 2 2 1 5 3 3 3 6 5 1 2 5 3 1 2 5 10
19 16 17 16 10 6 9 11 16 17 16 17 22 9 11 6 6 4 2 4 2 2 3 5 8 7 6 9 2 4 4 0 4 1 3 5 2 3 4 1 2 3 2 4 9
16 14 14 13 18 12 11 11 13 13 14 17 12 12 6 5 2 3 4 3 7 5 5 7 11 6 8 7 4 4 6 4 4 5 4 2 1 2 4 1 4 5 4 5 7
14 13 15 9 7 6 6 6 12 14 12 20 21 11 6 5 1 3 3 6 6 4 4 7 6 3 9 4 1 4 8 7 4 4 3 1 2 2 4 1 2 2 5 5 7
12 12 10 9 11 6 7 6 8 12 10 10 11 6 2 4 1 0 4 4 3 2 3 2 4 1 7 7 4 8 6 5 6 4 2 2 5 7 4 3 2 4 5 6 9
10 9 8 9 6 8 6 2 1 2 4 6 9 2 4 1 2 3 4 6 5 3 1 2 6 9 3 10 4 2 3 5 3 5 1 3 2 3 6 3 7 9 5 7 5
8 9 9 9 12 12 6 3 2 2 1 4 2 2 5 1 1 4 5 6 4 3 2 2 2 4 3 7 4 2 4 4 4 4 3 2 3 2 5 6 12 10 7 5 6
9 6 6 6 7 7 6 3 4 1 2 3 1 3 2 2 1 3 3 6 4 1 3 1 3 4 3 4 7 5 4 2 2 3 2 5 11 8 8 9 12 7 5 4 8
9 7 4 4 5 7 3 1 2 2 7 3 2 4 2 2 1 8 5 3 2 2 3 2 4 6 6 3 4 6 4 2 2 2 5 4 9 13 10 7 6 3 1 5 7
10 7 6 3 4 2 2 3 2 2 8 4 2 4 1 3 6 8 3 2 1 2 2 2 6 4 5 4 6 4 3 1 1 0 4 6 17 9 5 2 1 1 3 6 8
11 9 8 8 0 3 5 4 1 1 2 4 3 4 3 3 5 6 4 2 5 3 3 4 6 2 2 4 5 4 1 1 2 6 1 10 7 4 3 3 3 2 3 6 8
11 11 11 1 1 1 3 2 2 1 3 10 6 5 3 2 6 3 4 3 4 6 6 8 2 3 5 5 3 3 2 2 2 4 3 5 6 4 5 5 5 6 7 8 8
12 10 7 5 6 1 1 2 2 2 4 10 4 5 3 5 2 8 4 4 4 4 2 2 2 3 4 3 3 4 2 3 2 1 3 1 3 2 2 8 10 9 8 7 6
11 10 2 3 2 3 2 1 1 2 3 3 3 5 3 7 4 4 3 6 2 5 14 5 2 4 3 4 5 9 3 2 2 1 3 2 2 3 3 2 9 10 9 8 7
8 12 5 1 2 3 1 2 3 4 1 3 3 4 5 6 4 5 4 4 1 4 3 2 3 2 1 3 3 1 1 1 2 1 3 2 2 8 1 1 1 11 11 8 7
2 3 5 3 2 1 1 1 6 1 1 1 1 3 4 4 3 3 3 3 5 2 3 4 2 2 3 2 1 2 1 2 4 3 2 2 6 1 2 0 1 3 8 8 8
2 1 2 3 1 2 2 5 2 1 1 2 2 2 2 1 1 2 3 1 2 4 1 3 3 1 3 0 2 4 3 1 3 1 3 2 5 5 2 3 3 7 10 11 11
0 1 2 6 2 2 3 5 2 1 2 1 0 2 3 2 2 2 2 1 1 1 3 3 4 1 2 1 5 2 5 2 1 3 4 4 5 3 2 5 6 9 12 11 11
2 1 2 2 3 5 5 5 3 2 2 2 1 2 2 2 2 2 2 1 1 1 2 1 2 3 2 6 4 4 3 1 2 3 3 4 2 3 4 2 7 9 11 12 12
1 2 3 1 4 3 3 2 2 4 4 2 2 3 2 1 2 2 2 2 2 1 1 2 1 3 2 2 3 3 2 4 3 4 1 3 6 2 4 5 5 8 10 11 13
2 2 2 2 4 3 2 3 2 2 3 3 3 4 2 2 1 2 2 3 2 1 1 3 1 2 3 2 1 4 4 3 2 2 6 4 2 1 3 3 3 8 10 10 10
2 3 4 5 3 3 3 2 2 2 2 1 2 2 2 2 3 3 2 1 2 1 4 1 2 3 2 2 3 4 7 10 8 4 6 12 18 10 5 8 11 9 7 9 9
4 2 0 3 5 6 3 3 2 2 2 2 2 1 1 2 1 3 2 3 1 3 2 1 3 1 6 7 6 8 9 13 14 17 10 17 10 16 14 16 12 11 11 11 11
2 1 1 2 1 3 3 3 4 3 4 3 2 2 1 0 1 2 4 3 2 3 4 1 2 2 4 2 7 9 15 16 19 20 19 21 25 11 5 9 10 9 10 10 9
2 2 3 1 1 1 1 3 4 4 2 2 1 0 1 2 3 5 5 2 1 4 7 4 4 3 3 1 6 11 13 14 8 8 12 14 6 9 13 11 10 12 11 12 9
Wind_Direction
20 25 37 295 259 241 200 152 154 190 201 249 181 168 162 157 145 177 211 112 208 266 290 258 211 160 151 124 172 207 196 194 170 177 138 151 164 113 343 223 191 179 357 67 138
40 48 26 355 73 128 151 151 178 167 215 181 175 160 162 155 172 197 136 224 292 269 239 215 172 165 138 129 169 222 212 161 77 86 148 143 170 148 213 205 214 195 128 124 162
42 30 24 23 229 147 158 163 146 157 123 112 99 137 167 166 169 173 163 299 281 282 235 262 179 185 135 153 157 118 178 136 131 101 138 136 142 144 208 231 269 241 187 164 184
33 29 28 39 27 143 161 136 155 143 127 122 119 205 185 191 175 136 303 298 203 137 229 211 180 170 142 159 138 139 87 85 132 63 126 143 126 195 234 16 58 20 303 203 197
29 30 48 33 38 93 107 118 136 117 131 119 110 197 213 195 98 157 314 210 127 131 222 206 176 164 144 132 141 114 131 95 83 78 68 117 185 308 246 305 297 282 239 224 212
26 31 59 69 85 71 86 112 133 129 157 143 171 208 244 172 49 287 236 130 112 157 215 225 192 144 102 95 12 110 122 113 74 53 60 248 199 285 164 331 81 64 227 231 226
25 28 37 50 41 72 89 104 120 153 166 169 189 204 122 73 345 176 168 104 101 120 229 241 150 159 132 114 118 133 119 129 53 14 72 336 221 228 139 148 274 321 267 254 245
7 33 34 42 35 29 30 23 69 238 187 174 169 254 73 118 248 50 112 88 88 70 252 118 114 94 40 119 99 157 181 175 66 5 105 290 243 169 162 244 283 316 283 247 232
8 9 30 17 2 354 348 304 247 223 208 167 171 268 107 168 140 39 36 84 75 76 87 112 61 84 137 143 137 195 185 202 152 50 311 264 273 145 184 272 295 303 297 260 198
353 350 351 336 325 323 322 325 344 193 155 159 158 183 80 95 15 64 55 68 66 123 175 78 83 114 104 194 189 178 174 164 207 34 305 245 262 257 260 283 288 290 294 228 184
354 343 340 339 328 330 114 155 196 88 34 34 343 65 67 358 179 49 16 75 66 81 164 28 100 122 106 58 79 102 110 143 111 37 307 270 276 276 287 265 256 276 284 158 154
356 337 314 318 18 109 109 80 40 72 88 41 50 67 4 299 91 40 7 67 58 117 308 109 94 98 98 95 98 92 131 133 192 308 303 309 290 287 238 216 257 167 130 144 139
350 340 326 302 29 63 82 85 341 258 80 34 22 24 336 352 64 21 24 73 67 69 357 92 104 132 133 108 121 63 50 100 321 315 233 308 257 191 170 170 146 147 120 135 145
345 349 352 257 163 207 74 49 307 246 85 3 350 35 340 5 68 8 46 59 64 118 77 73 62 129 111 86 325 158 88 96 350 315 290 352 293 217 192 197 198 171 167 154 148
342 359 26 56 125 58 62 347 284 208 72 336 353 320 358 59 148 36 35 42 82 76 241 69 100 99 86 45 337 94 111 70 22 338 315 138 252 229 170 219 206 188 175 168 154
353 7 131 39 61 62 329 311 237 37 69 6 328 354 62 24 44 343 62 57 110 72 60 86 61 34 68 64 64 133 122 86 97 333 243 54 283 263 199 242 191 185 179 167 152
350 35 54 26 77 344 327 209 55 67 165 348 14 25 70 29 56 30 32 44 46 108 45 81 36 57 46 114 114 202 62 301 284 222 280 152 258 266 267 224 252 188 180 169 156
358 63 42 54 31 124 221 152 73 75 19 167 66 68 71 0 56 46 110 107 62 33 123 156 180 16 9 19 28 98 275 257 268 265 340 149 241 243 37 306 319 211 171 160 165
204 101 92 12 16 161 212 60 86 116 45 151 120 108 104 133 139 116 53 78 16 358 86 144 116 95 48 39 304 143 202 45 109 97 266 248 261 214 315 192 193 176 175 180 179
96 151 50 338 159 171 78 98 80 286 339 314 47 335 144 127 173 167 162 100 143 8 313 162 119 197 126 192 62 296 129 155 183 258 256 228 271 248 357 213 194 188 195 190 187
74 288 59 6 237 59 68 60 65 20 328 345 92 101 69 93 50 72 78 98 354 67 31 153 267 134 205 204 183 153 193 159 320 259 266 294 240 188 228 275 227 212 205 199 199
79 49 24 169 48 54 71 58 346 12 19 25 55 44 51 81 94 108 114 40 2 336 54 41 38 150 80 56 358 327 286 227 248 192 254 323 282 158 270 284 268 235 218 213 212
62 337 38 299 70 68 103 105 110 97 60 54 62 29 39 84 97 47 71 15 360 1 143 169 176 169 165 152 129 240 197 213 107 9 218 257 256 230 284 281 236 247 236 226 224
96 34 14 47 33 65 114 69 78 5 60 43 122 160 137 101 33 142 142 105 357 91 80 181 149 250 282 85 114 202 198 208 207 204 232 230 267 248 252 297 308 294 272 268 240
17 85 313 24 36 51 8 18 43 37 51 8 110 82 133 135 139 157 171 178 135 138 107 214 255 211 281 253 235 255 240 208 209 228 235 274 259 288 316 316 321 306 301 289 251
59 156 166 112 199 125 28 55 33 6 346 12 8 15 350 292 301 199 179 228 210 161 193 205 219 154 272 240 226 254 247 242 237 248 251 268 277 314 345 334 338 340 339 319 288
44 50 300 43 115 180 134 174 160 166 153 148 138 260 308 333 316 318 266 315 243 192 188 184 184 188 250 259 289 266 243 213 219 226 235 252 285 340 332 339 346 345 347 338 320